,,PressureMeas_1m,,PRMeasQMR101_1,,RHStat155_1m_1,,SRMeasQMS101R_1m,,TAStat155_1m_1,,GenWind_1,,GenWind_1,
2017-06-08, 00:00:06,VALID,918.017,VALID,0.0,VALID,97.913,VALID,0.019,VALID,21.417,VALID,13.0,VALID,0.08,
2017-06-08, 00:01:06,VALID,918.019,VALID,0.0,VALID,97.903,VALID,0.022,VALID,21.408,VALID,5.0,VALID,0.173,
2017-06-08, 00:02:06,VALID,918.026,VALID,0.0,VALID,97.823,VALID,0.011,VALID,21.379,VALID,20.0,VALID,0.143,
2017-06-08, 00:03:06,VALID,918.021,VALID,0.0,VALID,97.81,VALID,0.022,VALID,21.373,VALID,20.0,VALID,0.034,
2017-06-08, 00:04:06,VALID,918.031,VALID,0.0,VALID,97.757,VALID,0.023,VALID,21.361,VALID,20.0,VALID,0.0,
2017-06-08, 00:05:06,VALID,918.021,VALID,0.0,VALID,97.737,VALID,0.03,VALID,21.35,VALID,20.0,VALID,0.0,
2017-06-08, 00:06:06,VALID,918.009,VALID,0.0,VALID,97.772,VALID,0.019,VALID,21.352,VALID,20.0,VALID,0.0,
2017-06-08, 00:07:06,VALID,917.985,VALID,0.0,VALID,97.839,VALID,0.03,VALID,21.387,VALID,20.0,VALID,0.0,
2017-06-08, 00:08:06,VALID,917.966,VALID,0.0,VALID,97.876,VALID,-0.005,VALID,21.408,VALID,11.0,VALID,0.0,
2017-06-08, 00:09:06,VALID,917.939,VALID,0.0,VALID,97.818,VALID,-0.015,VALID,21.427,VALID,3.0,VALID,0.0,
2017-06-08, 00:10:06,VALID,917.932,VALID,0.0,VALID,97.762,VALID,-0.013,VALID,21.439,VALID,2.0,VALID,0.0,
2017-06-08, 00:11:06,VALID,917.913,VALID,0.0,VALID,97.751,VALID,-0.021,VALID,21.474,VALID,1.0,VALID,0.0,
2017-06-08, 00:12:06,VALID,917.897,VALID,0.0,VALID,97.7,VALID,-0.019,VALID,21.491,VALID,344.0,VALID,0.0,
2017-06-08, 00:13:06,VALID,917.908,VALID,0.0,VALID,97.601,VALID,-0.012,VALID,21.5,VALID,303.0,VALID,0.0,
2017-06-08, 00:14:06,VALID,917.893,VALID,0.0,VALID,97.338,VALID,-0.014,VALID,21.451,VALID,303.0,VALID,0.0,
2017-06-08, 00:15:06,VALID,917.881,VALID,0.0,VALID,96.747,VALID,-0.002,VALID,21.34,VALID,303.0,VALID,0.0,
2017-06-08, 00:16:06,VALID,917.866,VALID,0.0,VALID,96.522,VALID,-0.015,VALID,21.268,VALID,303.0,VALID,0.0,
2017-06-08, 00:17:06,VALID,917.849,VALID,0.0,VALID,96.686,VALID,-0.015,VALID,21.251,VALID,303.0,VALID,0.0,
2017-06-08, 00:18:06,VALID,917.832,VALID,0.0,VALID,96.854,VALID,-0.013,VALID,21.278,VALID,303.0,VALID,0.0,
2017-06-08, 00:19:06,VALID,917.811,VALID,0.0,VALID,97.028,VALID,-0.021,VALID,21.333,VALID,303.0,VALID,0.0,
2017-06-08, 00:20:06,VALID,917.809,VALID,0.0,VALID,96.93,VALID,-0.02,VALID,21.338,VALID,303.0,VALID,0.0,
2017-06-08, 00:21:06,VALID,917.814,VALID,0.0,VALID,97.002,VALID,-0.028,VALID,21.322,VALID,303.0,VALID,0.0,
2017-06-08, 00:22:06,VALID,917.808,VALID,0.0,VALID,97.006,VALID,-0.017,VALID,21.271,VALID,303.0,VALID,0.0,
2017-06-08, 00:23:06,VALID,917.816,VALID,0.0,VALID,96.834,VALID,0.012,VALID,21.195,VALID,330.0,VALID,0.0,
2017-06-08, 00:24:06,VALID,917.818,VALID,0.0,VALID,97.127,VALID,0.001,VALID,21.189,VALID,25.0,VALID,0.0,
2017-06-08, 00:25:06,VALID,917.815,VALID,0.0,VALID,97.427,VALID,-0.0,VALID,21.214,VALID,25.0,VALID,0.105,
2017-06-08, 00:26:06,VALID,917.794,VALID,0.0,VALID,97.589,VALID,0.01,VALID,21.223,VALID,25.0,VALID,0.471,
2017-06-08, 00:27:06,VALID,917.748,VALID,0.0,VALID,97.661,VALID,0.011,VALID,21.214,VALID,25.0,VALID,0.254,
2017-06-08, 00:28:06,VALID,917.721,VALID,0.0,VALID,97.759,VALID,0.016,VALID,21.238,VALID,23.0,VALID,0.352,
2017-06-08, 00:29:06,VALID,917.674,VALID,0.0,VALID,97.892,VALID,0.011,VALID,21.266,VALID,10.0,VALID,0.273,
2017-06-08, 00:30:06,VALID,917.632,VALID,0.0,VALID,97.974,VALID,0.006,VALID,21.294,VALID,4.0,VALID,0.003,
2017-06-08, 00:31:06,VALID,917.605,VALID,0.0,VALID,98.045,VALID,0.006,VALID,21.325,VALID,4.0,VALID,0.0,
2017-06-08, 00:32:06,VALID,917.59,VALID,0.0,VALID,98.032,VALID,0.006,VALID,21.336,VALID,5.0,VALID,0.0,
2017-06-08, 00:33:06,VALID,917.58,VALID,0.0,VALID,97.809,VALID,0.004,VALID,21.232,VALID,89.0,VALID,0.0,
2017-06-08, 00:34:06,VALID,917.569,VALID,0.0,VALID,97.098,VALID,0.009,VALID,21.003,VALID,142.0,VALID,0.0,
2017-06-08, 00:35:06,VALID,917.561,VALID,0.0,VALID,97.07,VALID,0.01,VALID,20.918,VALID,142.0,VALID,0.0,
2017-06-08, 00:36:06,VALID,917.555,VALID,0.0,VALID,97.416,VALID,0.0,VALID,20.938,VALID,142.0,VALID,0.043,
2017-06-08, 00:37:06,VALID,917.564,VALID,0.0,VALID,97.702,VALID,0.002,VALID,20.99,VALID,141.0,VALID,0.268,
2017-06-08, 00:38:06,VALID,917.56,VALID,0.0,VALID,97.604,VALID,-0.005,VALID,20.914,VALID,130.0,VALID,0.405,
2017-06-08, 00:39:06,VALID,917.568,VALID,0.0,VALID,97.434,VALID,0.002,VALID,20.833,VALID,110.0,VALID,0.299,
2017-06-08, 00:40:06,VALID,917.574,VALID,0.0,VALID,97.554,VALID,-0.018,VALID,20.842,VALID,109.0,VALID,0.521,
2017-06-08, 00:41:06,VALID,917.578,VALID,0.0,VALID,97.73,VALID,-0.008,VALID,20.883,VALID,108.0,VALID,0.682,
2017-06-08, 00:42:06,VALID,917.6,VALID,0.0,VALID,97.819,VALID,0.008,VALID,20.886,VALID,93.0,VALID,0.587,
2017-06-08, 00:43:06,VALID,917.607,VALID,0.0,VALID,97.785,VALID,0.009,VALID,20.862,VALID,82.0,VALID,0.62,
2017-06-08, 00:44:06,VALID,917.604,VALID,0.0,VALID,97.917,VALID,0.007,VALID,20.874,VALID,77.0,VALID,0.562,
2017-06-08, 00:45:06,VALID,917.602,VALID,0.0,VALID,97.924,VALID,0.012,VALID,20.85,VALID,76.0,VALID,0.455,
2017-06-08, 00:46:06,VALID,917.593,VALID,0.0,VALID,97.942,VALID,0.013,VALID,20.844,VALID,75.0,VALID,0.381,
2017-06-08, 00:47:06,VALID,917.582,VALID,0.0,VALID,98.002,VALID,0.007,VALID,20.841,VALID,75.0,VALID,0.399,
2017-06-08, 00:48:06,VALID,917.567,VALID,0.0,VALID,98.075,VALID,-0.002,VALID,20.876,VALID,80.0,VALID,0.41,
2017-06-08, 00:49:06,VALID,917.559,VALID,0.0,VALID,98.232,VALID,0.009,VALID,20.963,VALID,93.0,VALID,0.467,
2017-06-08, 00:50:06,VALID,917.54,VALID,0.0,VALID,98.275,VALID,0.008,VALID,20.992,VALID,103.0,VALID,0.504,
2017-06-08, 00:51:06,VALID,917.523,VALID,0.0,VALID,98.272,VALID,-0.006,VALID,20.982,VALID,111.0,VALID,0.307,
2017-06-08, 00:52:06,VALID,917.501,VALID,0.0,VALID,98.178,VALID,-0.013,VALID,20.94,VALID,117.0,VALID,0.457,
2017-06-08, 00:53:06,VALID,917.487,VALID,0.0,VALID,98.145,VALID,-0.006,VALID,20.908,VALID,118.0,VALID,0.421,
2017-06-08, 00:54:06,VALID,917.473,VALID,0.0,VALID,98.133,VALID,0.002,VALID,20.878,VALID,122.0,VALID,0.34,
2017-06-08, 00:55:06,VALID,917.466,VALID,0.0,VALID,98.166,VALID,0.001,VALID,20.874,VALID,123.0,VALID,0.26,
2017-06-08, 00:56:06,VALID,917.459,VALID,0.0,VALID,98.199,VALID,-0.009,VALID,20.881,VALID,124.0,VALID,0.158,
2017-06-08, 00:57:06,VALID,917.434,VALID,0.0,VALID,98.192,VALID,-0.009,VALID,20.861,VALID,131.0,VALID,0.279,
2017-06-08, 00:58:06,VALID,917.426,VALID,0.0,VALID,98.215,VALID,-0.019,VALID,20.87,VALID,131.0,VALID,0.329,
2017-06-08, 00:59:06,VALID,917.404,VALID,0.0,VALID,98.283,VALID,-0.01,VALID,20.901,VALID,127.0,VALID,0.387,
2017-06-08, 01:00:06,VALID,917.403,VALID,0.0,VALID,98.266,VALID,-0.007,VALID,20.892,VALID,122.0,VALID,0.477,
2017-06-08, 01:01:06,VALID,917.39,VALID,0.0,VALID,98.317,VALID,-0.003,VALID,20.929,VALID,120.0,VALID,0.452,
2017-06-08, 01:02:06,VALID,917.376,VALID,0.0,VALID,98.333,VALID,-0.011,VALID,20.936,VALID,118.0,VALID,0.314,
2017-06-08, 01:03:06,VALID,917.353,VALID,0.0,VALID,98.324,VALID,-0.012,VALID,20.944,VALID,108.0,VALID,0.288,
2017-06-08, 01:04:06,VALID,917.348,VALID,0.0,VALID,98.316,VALID,0.003,VALID,20.926,VALID,113.0,VALID,0.381,
2017-06-08, 01:05:06,VALID,917.334,VALID,0.0,VALID,98.26,VALID,-0.002,VALID,20.888,VALID,116.0,VALID,0.42,
2017-06-08, 01:06:06,VALID,917.324,VALID,0.0,VALID,98.301,VALID,-0.008,VALID,20.905,VALID,113.0,VALID,0.507,
2017-06-08, 01:07:06,VALID,917.323,VALID,0.0,VALID,98.343,VALID,0.004,VALID,20.946,VALID,119.0,VALID,0.502,
2017-06-08, 01:08:06,VALID,917.316,VALID,0.0,VALID,98.365,VALID,-0.009,VALID,20.961,VALID,121.0,VALID,0.318,
2017-06-08, 01:09:06,VALID,917.33,VALID,0.0,VALID,98.362,VALID,0.008,VALID,20.956,VALID,129.0,VALID,0.26,
2017-06-08, 01:10:06,VALID,917.34,VALID,0.0,VALID,98.368,VALID,0.014,VALID,20.961,VALID,145.0,VALID,0.268,
2017-06-08, 01:11:06,VALID,917.336,VALID,0.0,VALID,98.375,VALID,0.006,VALID,20.975,VALID,144.0,VALID,0.287,
2017-06-08, 01:12:06,VALID,917.354,VALID,0.0,VALID,98.388,VALID,0.005,VALID,21.0,VALID,146.0,VALID,0.035,
2017-06-08, 01:13:06,VALID,917.374,VALID,0.0,VALID,98.401,VALID,-0.002,VALID,21.011,VALID,146.0,VALID,0.126,
2017-06-08, 01:14:06,VALID,917.375,VALID,0.0,VALID,98.42,VALID,0.005,VALID,21.022,VALID,146.0,VALID,0.029,
2017-06-08, 01:15:06,VALID,917.384,VALID,0.0,VALID,98.402,VALID,0.021,VALID,21.021,VALID,147.0,VALID,0.076,
2017-06-08, 01:16:06,VALID,917.392,VALID,0.0,VALID,98.383,VALID,0.011,VALID,21.013,VALID,157.0,VALID,0.226,
2017-06-08, 01:17:06,VALID,917.397,VALID,0.0,VALID,98.387,VALID,0.014,VALID,21.021,VALID,167.0,VALID,0.363,
2017-06-08, 01:18:06,VALID,917.397,VALID,0.0,VALID,98.4,VALID,0.025,VALID,21.044,VALID,169.0,VALID,0.42,
2017-06-08, 01:19:06,VALID,917.406,VALID,0.0,VALID,98.417,VALID,0.01,VALID,21.072,VALID,178.0,VALID,0.127,
2017-06-08, 01:20:06,VALID,917.401,VALID,0.0,VALID,98.409,VALID,0.006,VALID,21.091,VALID,178.0,VALID,0.025,
2017-06-08, 01:21:06,VALID,917.403,VALID,0.0,VALID,98.421,VALID,0.016,VALID,21.1,VALID,170.0,VALID,0.124,
2017-06-08, 01:22:06,VALID,917.404,VALID,0.0,VALID,98.395,VALID,0.005,VALID,21.065,VALID,162.0,VALID,0.0,
2017-06-08, 01:23:06,VALID,917.416,VALID,0.0,VALID,98.323,VALID,0.003,VALID,21.04,VALID,156.0,VALID,0.0,
2017-06-08, 01:24:06,VALID,917.42,VALID,0.0,VALID,98.357,VALID,-0.008,VALID,21.065,VALID,154.0,VALID,0.0,
2017-06-08, 01:25:06,VALID,917.417,VALID,0.0,VALID,98.339,VALID,0.003,VALID,21.055,VALID,137.0,VALID,0.0,
2017-06-08, 01:26:06,VALID,917.406,VALID,0.0,VALID,98.278,VALID,0.008,VALID,20.992,VALID,105.0,VALID,0.0,
2017-06-08, 01:27:06,VALID,917.386,VALID,0.0,VALID,98.204,VALID,0.016,VALID,20.944,VALID,100.0,VALID,0.0,
2017-06-08, 01:28:06,VALID,917.38,VALID,0.0,VALID,98.167,VALID,0.006,VALID,20.905,VALID,96.0,VALID,0.0,
2017-06-08, 01:29:06,VALID,917.359,VALID,0.0,VALID,98.166,VALID,-0.007,VALID,20.872,VALID,93.0,VALID,0.0,
2017-06-08, 01:30:06,VALID,917.336,VALID,0.0,VALID,98.167,VALID,-0.006,VALID,20.864,VALID,93.0,VALID,0.0,
2017-06-08, 01:31:06,VALID,917.318,VALID,0.0,VALID,98.225,VALID,0.003,VALID,20.873,VALID,93.0,VALID,0.0,
2017-06-08, 01:32:06,VALID,917.308,VALID,0.0,VALID,98.253,VALID,0.011,VALID,20.887,VALID,102.0,VALID,0.0,
2017-06-08, 01:33:06,VALID,917.296,VALID,0.0,VALID,98.285,VALID,0.016,VALID,20.903,VALID,113.0,VALID,0.0,
2017-06-08, 01:34:06,VALID,917.284,VALID,0.0,VALID,98.301,VALID,-0.001,VALID,20.921,VALID,126.0,VALID,0.0,
2017-06-08, 01:35:06,VALID,917.297,VALID,0.0,VALID,98.321,VALID,0.002,VALID,20.952,VALID,121.0,VALID,0.0,
2017-06-08, 01:36:06,VALID,917.274,VALID,0.0,VALID,98.314,VALID,0.01,VALID,20.96,VALID,141.0,VALID,0.0,
2017-06-08, 01:37:06,VALID,917.264,VALID,0.0,VALID,98.279,VALID,0.014,VALID,20.939,VALID,147.0,VALID,0.593,
2017-06-08, 01:38:06,VALID,917.261,VALID,0.0,VALID,98.287,VALID,-0.015,VALID,20.956,VALID,156.0,VALID,0.901,
2017-06-08, 01:39:06,VALID,917.251,VALID,0.0,VALID,98.327,VALID,-0.025,VALID,20.974,VALID,158.0,VALID,0.905,
2017-06-08, 01:40:06,VALID,917.244,VALID,0.0,VALID,98.278,VALID,-0.019,VALID,20.959,VALID,157.0,VALID,1.093,
2017-06-08, 01:41:06,VALID,917.257,VALID,0.0,VALID,98.261,VALID,-0.024,VALID,20.947,VALID,145.0,VALID,0.812,
2017-06-08, 01:42:06,VALID,917.252,VALID,0.0,VALID,98.232,VALID,-0.007,VALID,20.921,VALID,141.0,VALID,0.843,
2017-06-08, 01:43:06,VALID,917.249,VALID,0.0,VALID,98.178,VALID,-0.021,VALID,20.894,VALID,133.0,VALID,0.966,
2017-06-08, 01:44:06,VALID,917.252,VALID,0.0,VALID,98.185,VALID,-0.017,VALID,20.888,VALID,136.0,VALID,1.054,
2017-06-08, 01:45:06,VALID,917.245,VALID,0.0,VALID,98.179,VALID,-0.013,VALID,20.882,VALID,125.0,VALID,1.149,
2017-06-08, 01:46:06,VALID,917.237,VALID,0.0,VALID,98.146,VALID,-0.014,VALID,20.865,VALID,123.0,VALID,0.949,
2017-06-08, 01:47:06,VALID,917.218,VALID,0.0,VALID,98.078,VALID,-0.021,VALID,20.838,VALID,132.0,VALID,0.879,
2017-06-08, 01:48:06,VALID,917.205,VALID,0.0,VALID,98.064,VALID,-0.006,VALID,20.831,VALID,141.0,VALID,0.903,
2017-06-08, 01:49:06,VALID,917.194,VALID,0.0,VALID,98.023,VALID,0.004,VALID,20.821,VALID,137.0,VALID,0.814,
2017-06-08, 01:50:06,VALID,917.188,VALID,0.0,VALID,98.015,VALID,-0.013,VALID,20.823,VALID,140.0,VALID,0.874,
2017-06-08, 01:51:06,VALID,917.187,VALID,0.0,VALID,97.988,VALID,-0.02,VALID,20.801,VALID,123.0,VALID,0.878,
2017-06-08, 01:52:06,VALID,917.191,VALID,0.0,VALID,97.971,VALID,-0.028,VALID,20.795,VALID,130.0,VALID,0.529,
2017-06-08, 01:53:06,VALID,917.175,VALID,0.0,VALID,97.979,VALID,-0.011,VALID,20.79,VALID,140.0,VALID,0.504,
2017-06-08, 01:54:06,VALID,917.179,VALID,0.0,VALID,97.914,VALID,-0.021,VALID,20.766,VALID,129.0,VALID,0.533,
2017-06-08, 01:55:06,VALID,917.156,VALID,0.0,VALID,97.911,VALID,-0.022,VALID,20.766,VALID,120.0,VALID,0.184,
2017-06-08, 01:56:06,VALID,917.145,VALID,0.0,VALID,97.905,VALID,-0.01,VALID,20.763,VALID,116.0,VALID,0.022,
2017-06-08, 01:57:06,VALID,917.139,VALID,0.0,VALID,97.834,VALID,-0.02,VALID,20.753,VALID,116.0,VALID,0.159,
2017-06-08, 01:58:06,VALID,917.133,VALID,0.0,VALID,97.731,VALID,-0.005,VALID,20.719,VALID,90.0,VALID,0.187,
2017-06-08, 01:59:06,VALID,917.134,VALID,0.0,VALID,97.687,VALID,-0.008,VALID,20.701,VALID,63.0,VALID,0.295,
2017-06-08, 02:00:06,VALID,917.128,VALID,0.0,VALID,97.655,VALID,-0.004,VALID,20.69,VALID,64.0,VALID,0.256,
2017-06-08, 02:01:06,VALID,917.105,VALID,0.0,VALID,97.677,VALID,0.0,VALID,20.696,VALID,78.0,VALID,0.393,
2017-06-08, 02:02:06,VALID,917.087,VALID,0.0,VALID,97.678,VALID,-0.002,VALID,20.704,VALID,80.0,VALID,0.455,
2017-06-08, 02:03:06,VALID,917.079,VALID,0.0,VALID,97.735,VALID,0.008,VALID,20.728,VALID,81.0,VALID,0.674,
2017-06-08, 02:04:06,VALID,917.078,VALID,0.0,VALID,97.774,VALID,0.003,VALID,20.732,VALID,80.0,VALID,0.548,
2017-06-08, 02:05:06,VALID,917.055,VALID,0.0,VALID,97.741,VALID,0.002,VALID,20.712,VALID,95.0,VALID,0.594,
2017-06-08, 02:06:06,VALID,917.061,VALID,0.0,VALID,97.82,VALID,0.011,VALID,20.737,VALID,97.0,VALID,0.752,
2017-06-08, 02:07:06,VALID,917.05,VALID,0.0,VALID,97.855,VALID,-0.009,VALID,20.743,VALID,96.0,VALID,0.703,
2017-06-08, 02:08:06,VALID,917.046,VALID,0.0,VALID,97.818,VALID,-0.011,VALID,20.718,VALID,96.0,VALID,0.663,
2017-06-08, 02:09:06,VALID,917.046,VALID,0.0,VALID,97.843,VALID,-0.006,VALID,20.708,VALID,97.0,VALID,0.586,
2017-06-08, 02:10:06,VALID,917.055,VALID,0.0,VALID,97.837,VALID,0.005,VALID,20.689,VALID,102.0,VALID,0.471,
2017-06-08, 02:11:06,VALID,917.053,VALID,0.0,VALID,97.763,VALID,-0.009,VALID,20.65,VALID,118.0,VALID,0.439,
2017-06-08, 02:12:06,VALID,917.06,VALID,0.0,VALID,97.715,VALID,0.0,VALID,20.626,VALID,129.0,VALID,0.541,
2017-06-08, 02:13:06,VALID,917.048,VALID,0.0,VALID,97.748,VALID,-0.004,VALID,20.618,VALID,139.0,VALID,0.442,
2017-06-08, 02:14:06,VALID,917.027,VALID,0.0,VALID,97.781,VALID,-0.018,VALID,20.609,VALID,152.0,VALID,0.723,
2017-06-08, 02:15:06,VALID,916.995,VALID,0.0,VALID,97.767,VALID,-0.006,VALID,20.575,VALID,153.0,VALID,0.58,
2017-06-08, 02:16:06,VALID,916.999,VALID,0.0,VALID,97.787,VALID,-0.014,VALID,20.543,VALID,154.0,VALID,0.498,
2017-06-08, 02:17:06,VALID,916.978,VALID,0.0,VALID,97.843,VALID,-0.028,VALID,20.536,VALID,147.0,VALID,0.498,
2017-06-08, 02:18:06,VALID,916.958,VALID,0.0,VALID,97.897,VALID,-0.034,VALID,20.534,VALID,157.0,VALID,0.072,
2017-06-08, 02:19:06,VALID,916.95,VALID,0.0,VALID,97.966,VALID,-0.026,VALID,20.547,VALID,157.0,VALID,0.0,
2017-06-08, 02:20:06,VALID,916.948,VALID,0.0,VALID,97.71,VALID,-0.004,VALID,20.441,VALID,152.0,VALID,0.019,
2017-06-08, 02:21:06,VALID,916.943,VALID,0.0,VALID,97.612,VALID,-0.022,VALID,20.387,VALID,149.0,VALID,0.005,
2017-06-08, 02:22:06,VALID,916.945,VALID,0.0,VALID,97.824,VALID,-0.021,VALID,20.428,VALID,149.0,VALID,0.0,
2017-06-08, 02:23:06,VALID,916.93,VALID,0.0,VALID,97.977,VALID,-0.007,VALID,20.48,VALID,149.0,VALID,0.0,
2017-06-08, 02:24:06,VALID,916.938,VALID,0.0,VALID,98.036,VALID,-0.003,VALID,20.517,VALID,149.0,VALID,0.0,
2017-06-08, 02:25:06,VALID,916.928,VALID,0.0,VALID,98.05,VALID,-0.009,VALID,20.537,VALID,149.0,VALID,0.0,
2017-06-08, 02:26:06,VALID,916.92,VALID,0.0,VALID,98.052,VALID,0.0,VALID,20.557,VALID,149.0,VALID,0.0,
2017-06-08, 02:27:06,VALID,916.909,VALID,0.0,VALID,98.011,VALID,-0.003,VALID,20.563,VALID,149.0,VALID,0.0,
2017-06-08, 02:28:06,VALID,916.884,VALID,0.0,VALID,98.009,VALID,-0.0,VALID,20.574,VALID,149.0,VALID,0.0,
2017-06-08, 02:29:06,VALID,916.866,VALID,0.0,VALID,97.985,VALID,-0.004,VALID,20.575,VALID,149.0,VALID,0.0,
2017-06-08, 02:30:06,VALID,916.854,VALID,0.0,VALID,97.988,VALID,-0.013,VALID,20.598,VALID,149.0,VALID,0.0,
2017-06-08, 02:31:06,VALID,916.849,VALID,0.0,VALID,97.98,VALID,-0.02,VALID,20.614,VALID,149.0,VALID,0.012,
2017-06-08, 02:32:06,VALID,916.837,VALID,0.0,VALID,97.938,VALID,-0.016,VALID,20.62,VALID,149.0,VALID,0.005,
2017-06-08, 02:33:06,VALID,916.836,VALID,0.0,VALID,97.959,VALID,-0.007,VALID,20.645,VALID,149.0,VALID,0.0,
2017-06-08, 02:34:06,VALID,916.833,VALID,0.0,VALID,97.976,VALID,-0.012,VALID,20.667,VALID,150.0,VALID,0.0,
2017-06-08, 02:35:06,VALID,916.838,VALID,0.0,VALID,97.965,VALID,-0.005,VALID,20.69,VALID,150.0,VALID,0.0,
2017-06-08, 02:36:06,VALID,916.832,VALID,0.0,VALID,97.962,VALID,0.005,VALID,20.713,VALID,150.0,VALID,0.0,
2017-06-08, 02:37:06,VALID,916.835,VALID,0.0,VALID,97.861,VALID,0.001,VALID,20.677,VALID,150.0,VALID,0.0,
2017-06-08, 02:38:06,VALID,916.829,VALID,0.0,VALID,97.575,VALID,-0.014,VALID,20.587,VALID,150.0,VALID,0.0,
2017-06-08, 02:39:06,VALID,916.826,VALID,0.0,VALID,97.574,VALID,-0.008,VALID,20.575,VALID,150.0,VALID,0.015,
2017-06-08, 02:40:06,VALID,916.827,VALID,0.0,VALID,97.685,VALID,-0.026,VALID,20.591,VALID,105.0,VALID,0.106,
2017-06-08, 02:41:06,VALID,916.818,VALID,0.0,VALID,97.761,VALID,-0.024,VALID,20.608,VALID,82.0,VALID,0.362,
2017-06-08, 02:42:06,VALID,916.814,VALID,0.0,VALID,97.807,VALID,-0.031,VALID,20.612,VALID,83.0,VALID,0.057,
2017-06-08, 02:43:06,VALID,916.819,VALID,0.0,VALID,97.781,VALID,-0.019,VALID,20.587,VALID,96.0,VALID,0.418,
2017-06-08, 02:44:06,VALID,916.809,VALID,0.0,VALID,97.798,VALID,-0.015,VALID,20.569,VALID,109.0,VALID,0.68,
2017-06-08, 02:45:06,VALID,916.822,VALID,0.0,VALID,97.821,VALID,-0.02,VALID,20.557,VALID,112.0,VALID,0.696,
2017-06-08, 02:46:06,VALID,916.821,VALID,0.0,VALID,97.901,VALID,-0.005,VALID,20.551,VALID,110.0,VALID,0.543,
2017-06-08, 02:47:06,VALID,916.823,VALID,0.0,VALID,97.961,VALID,-0.03,VALID,20.551,VALID,107.0,VALID,0.241,
2017-06-08, 02:48:06,VALID,916.836,VALID,0.0,VALID,98.018,VALID,-0.02,VALID,20.564,VALID,99.0,VALID,0.126,
2017-06-08, 02:49:06,VALID,916.834,VALID,0.0,VALID,98.096,VALID,-0.026,VALID,20.585,VALID,71.0,VALID,0.269,
2017-06-08, 02:50:06,VALID,916.835,VALID,0.0,VALID,98.015,VALID,-0.01,VALID,20.551,VALID,71.0,VALID,0.333,
2017-06-08, 02:51:06,VALID,916.841,VALID,0.0,VALID,98.023,VALID,-0.042,VALID,20.542,VALID,71.0,VALID,0.073,
2017-06-08, 02:52:06,VALID,916.833,VALID,0.0,VALID,98.041,VALID,-0.021,VALID,20.525,VALID,74.0,VALID,0.077,
2017-06-08, 02:53:06,VALID,916.824,VALID,0.0,VALID,98.034,VALID,0.001,VALID,20.518,VALID,113.0,VALID,0.135,
2017-06-08, 02:54:06,VALID,916.816,VALID,0.0,VALID,98.082,VALID,-0.003,VALID,20.532,VALID,127.0,VALID,0.044,
2017-06-08, 02:55:06,VALID,916.802,VALID,0.0,VALID,98.138,VALID,0.016,VALID,20.555,VALID,95.0,VALID,0.282,
2017-06-08, 02:56:06,VALID,916.805,VALID,0.0,VALID,98.055,VALID,0.024,VALID,20.506,VALID,78.0,VALID,0.659,
2017-06-08, 02:57:06,VALID,916.802,VALID,0.0,VALID,98.031,VALID,0.002,VALID,20.477,VALID,69.0,VALID,1.147,
2017-06-08, 02:58:06,VALID,916.811,VALID,0.0,VALID,98.088,VALID,0.02,VALID,20.47,VALID,98.0,VALID,0.818,
2017-06-08, 02:59:06,VALID,916.805,VALID,0.0,VALID,98.103,VALID,0.016,VALID,20.449,VALID,115.0,VALID,0.642,
2017-06-08, 03:00:06,VALID,916.801,VALID,0.0,VALID,98.148,VALID,-0.003,VALID,20.443,VALID,88.0,VALID,1.039,
2017-06-08, 03:01:06,VALID,916.796,VALID,0.0,VALID,98.149,VALID,0.01,VALID,20.432,VALID,85.0,VALID,0.445,
2017-06-08, 03:02:06,VALID,916.781,VALID,0.0,VALID,98.214,VALID,0.008,VALID,20.44,VALID,92.0,VALID,0.719,
2017-06-08, 03:03:06,VALID,916.771,VALID,0.0,VALID,98.232,VALID,0.008,VALID,20.437,VALID,66.0,VALID,0.73,
2017-06-08, 03:04:06,VALID,916.76,VALID,0.0,VALID,98.259,VALID,0.012,VALID,20.433,VALID,63.0,VALID,0.572,
2017-06-08, 03:05:06,VALID,916.746,VALID,0.0,VALID,98.3,VALID,0.006,VALID,20.447,VALID,68.0,VALID,0.376,
2017-06-08, 03:06:06,VALID,916.739,VALID,0.0,VALID,98.289,VALID,-0.001,VALID,20.432,VALID,70.0,VALID,0.76,
2017-06-08, 03:07:06,VALID,916.726,VALID,0.0,VALID,98.3,VALID,0.009,VALID,20.422,VALID,80.0,VALID,0.782,
2017-06-08, 03:08:06,VALID,916.724,VALID,0.0,VALID,98.303,VALID,-0.019,VALID,20.419,VALID,98.0,VALID,0.148,
2017-06-08, 03:09:06,VALID,916.704,VALID,0.0,VALID,98.346,VALID,-0.021,VALID,20.45,VALID,70.0,VALID,0.071,
2017-06-08, 03:10:06,VALID,916.698,VALID,0.0,VALID,98.399,VALID,-0.004,VALID,20.474,VALID,70.0,VALID,0.0,
2017-06-08, 03:11:06,VALID,916.676,VALID,0.0,VALID,98.406,VALID,-0.0,VALID,20.489,VALID,74.0,VALID,0.029,
2017-06-08, 03:12:06,VALID,916.666,VALID,0.0,VALID,98.414,VALID,-0.01,VALID,20.48,VALID,107.0,VALID,0.341,
2017-06-08, 03:13:06,VALID,916.645,VALID,0.0,VALID,98.373,VALID,-0.005,VALID,20.457,VALID,110.0,VALID,0.061,
2017-06-08, 03:14:06,VALID,916.635,VALID,0.0,VALID,98.402,VALID,-0.016,VALID,20.489,VALID,107.0,VALID,0.376,
2017-06-08, 03:15:06,VALID,916.622,VALID,0.0,VALID,98.375,VALID,-0.015,VALID,20.437,VALID,110.0,VALID,0.928,
2017-06-08, 03:16:06,VALID,916.612,VALID,0.0,VALID,98.319,VALID,-0.018,VALID,20.389,VALID,89.0,VALID,0.706,
2017-06-08, 03:17:06,VALID,916.611,VALID,0.0,VALID,98.33,VALID,-0.002,VALID,20.382,VALID,76.0,VALID,0.45,
2017-06-08, 03:18:06,VALID,916.592,VALID,0.0,VALID,98.351,VALID,-0.012,VALID,20.368,VALID,109.0,VALID,0.55,
2017-06-08, 03:19:06,VALID,916.592,VALID,0.0,VALID,98.378,VALID,-0.011,VALID,20.38,VALID,133.0,VALID,0.711,
2017-06-08, 03:20:06,VALID,916.577,VALID,0.0,VALID,98.4,VALID,-0.007,VALID,20.385,VALID,156.0,VALID,1.014,
2017-06-08, 03:21:06,VALID,916.58,VALID,0.0,VALID,98.434,VALID,-0.008,VALID,20.384,VALID,156.0,VALID,1.105,
2017-06-08, 03:22:06,VALID,916.588,VALID,0.0,VALID,98.425,VALID,-0.02,VALID,20.369,VALID,135.0,VALID,0.698,
2017-06-08, 03:23:06,VALID,916.593,VALID,0.0,VALID,98.467,VALID,-0.005,VALID,20.401,VALID,88.0,VALID,0.725,
2017-06-08, 03:24:06,VALID,916.61,VALID,0.0,VALID,98.47,VALID,0.015,VALID,20.391,VALID,94.0,VALID,1.211,
2017-06-08, 03:25:06,VALID,916.61,VALID,0.0,VALID,98.468,VALID,0.016,VALID,20.371,VALID,107.0,VALID,1.192,
2017-06-08, 03:26:06,VALID,916.622,VALID,0.0,VALID,98.469,VALID,0.018,VALID,20.37,VALID,118.0,VALID,0.95,
2017-06-08, 03:27:06,VALID,916.598,VALID,0.0,VALID,98.497,VALID,0.011,VALID,20.383,VALID,119.0,VALID,0.648,
2017-06-08, 03:28:06,VALID,916.602,VALID,0.0,VALID,98.521,VALID,0.001,VALID,20.397,VALID,104.0,VALID,0.784,
2017-06-08, 03:29:06,VALID,916.611,VALID,0.0,VALID,98.521,VALID,-0.001,VALID,20.394,VALID,100.0,VALID,0.305,
2017-06-08, 03:30:06,VALID,916.606,VALID,0.0,VALID,98.544,VALID,0.013,VALID,20.428,VALID,113.0,VALID,0.359,
2017-06-08, 03:31:06,VALID,916.606,VALID,0.0,VALID,98.572,VALID,-0.002,VALID,20.439,VALID,124.0,VALID,0.482,
2017-06-08, 03:32:06,VALID,916.601,VALID,0.0,VALID,98.57,VALID,0.007,VALID,20.457,VALID,127.0,VALID,0.745,
2017-06-08, 03:33:06,VALID,916.603,VALID,0.0,VALID,98.544,VALID,-0.001,VALID,20.429,VALID,113.0,VALID,0.927,
2017-06-08, 03:34:06,VALID,916.595,VALID,0.0,VALID,98.536,VALID,0.006,VALID,20.394,VALID,102.0,VALID,1.317,
2017-06-08, 03:35:06,VALID,916.597,VALID,0.0,VALID,98.523,VALID,-0.007,VALID,20.368,VALID,114.0,VALID,1.319,
2017-06-08, 03:36:06,VALID,916.601,VALID,0.0,VALID,98.535,VALID,0.01,VALID,20.383,VALID,119.0,VALID,1.124,
2017-06-08, 03:37:06,VALID,916.596,VALID,0.0,VALID,98.572,VALID,0.004,VALID,20.407,VALID,100.0,VALID,1.312,
2017-06-08, 03:38:06,VALID,916.605,VALID,0.0,VALID,98.588,VALID,0.002,VALID,20.425,VALID,111.0,VALID,1.516,
2017-06-08, 03:39:06,VALID,916.606,VALID,0.0,VALID,98.578,VALID,0.019,VALID,20.405,VALID,118.0,VALID,1.563,